Regional Weather Roundup
Issued by NWS

Home | Current Version | Previous Version | Text Only | Print | Product List | Glossary Off
Versions: 1 2 3 4 5 6 7 8 9 10 11 12 13 14 15 16 17 18 19 20 21 22 23 24 25 26 27 28 29 30 31 32 33 34 35 36 37 38 39 40 41 42 43 44 45 46 47 48 49 50

000
ASUS45 KBOU 051007
RWRCO

WEATHER ROUNDUP FOR COLORADO
NATIONAL WEATHER SERVICE DENVER/BOULDER CO
400 AM MDT TUE MAY 05 2015

NOTE: "FAIR" INDICATES FEW OR NO CLOUDS BELOW 12000 FEET WITH NO
SIGNIFICANT WEATHER AND/OR OBSTRUCTIONS TO VISIBILITY.

COZ001>005-013-030-031-051100-
...NORTHWEST COLORADO...

CITY           SKY/WX    TMP DP  RH WIND       PRES   REMARKS
CRAIG          PTCLDY    35  33  92 W3        29.97S
HAYDEN         NOT AVBL
MEEKER         MOCLDY    42  36  79 E7        29.96S
MOUNT WERNER   NOT AVBL
STEAMBOAT SPGS PTCLDY    37  34  89 CALM      29.98F
WALDEN         PTCLDY    30  28  93 E7        30.04S WCI  23
$$

COZ006>008-011-051100-
...WEST CENTRAL VALLEYS...

CITY           SKY/WX    TMP DP  RH WIND       PRES   REMARKS
GRAND JUNCTION CLOUDY    55  46  71 CALM      29.88F
MONTROSE       LGT RAIN  51  45  79 E3        29.95F
EAGLE          MOCLDY    39  37  93 CALM      30.02S
RIFLE          MOCLDY    46  40  79 CALM      29.93F
DELTA          CLOUDY    53  44  71 CALM      29.93S
NUCLA          CLOUDY    48  43  81 SE5       29.98F
$$

COZ017>023-064>068-051100-
...SOUTHWEST COLORADO...

CITY           SKY/WX    TMP DP  RH WIND       PRES   REMARKS
DURANGO        LGT RAIN  46  44  93 CALM      29.98F
CORTEZ         RAIN      48  46  93 CALM      29.96S FOG
PAGOSA SPRINGS RAIN      42  42  99 CALM      30.03F
TELLURIDE      DRIZZLE   38  38  99 CALM      30.07S
WOLF CREEK PAS NOT AVBL
$$

COZ009-010-012-014-032>034-037-058>063-051100-
...CENTRAL COLORADO...

CITY           SKY/WX    TMP DP  RH WIND       PRES   REMARKS
ASPEN          CLOUDY    38  35  89 CALM      30.00F
BUENA VISTA    NOT AVBL
COPPER MTN     MOCLDY    36  30  80 SE12      30.19S
BERTHOUD PASS  MOCLDY    27  18  69 SE22      30.21S WCI  12
COTTONWOOD PAS LGT SNOW  36  34  93 S5        30.13F VSB 3/4
GUNNISON       CLOUDY    45  37  76 N6        30.05F
KREMMLING      PTCLDY    34  32  93 CALM      30.04F
LEADVILLE      CLOUDY    36  35  96 CALM      30.11S
MONARCH PASS   SNOW      30  28  93 NE23      30.26F VSB<1/4 WCI  17
SALIDA         NOT AVBL
SUNLIGHT       MOCLDY    36  34  93 CALM      30.15S
WILKERSON PASS FOG       32  32 100 S5        30.20F VSB 1/2 WCI  27
$$

COZ069>075-051100-
...SAN LUIS VALLEY/SANGRE DE CRISTO MOUNTAINS...

CITY           SKY/WX    TMP DP  RH WIND       PRES   REMARKS
ALAMOSA        LGT RAIN  45  42  89 SW12      30.02S
LA VETA PASS   DRZL/FOG  36  34  93 MISG      30.12S VSB 1/2
SAGUACHE       LGT RAIN  43  41  93 NW7       30.03F
$$

COZ035-036-038>040-051100-
...NORTHERN COLORADO FRONT RANGE...

CITY           SKY/WX    TMP DP  RH WIND       PRES   REMARKS
DENVER INTL AP FOG       48  47  96 E9        30.02R VSB 1/2
DMNS CITY PARK   N/A     48  47  97 E3        30.00S
AURORA         FOG       46  46 100 E8        30.03S VSB 3/4
FRONT RANGE AP NOT AVBL
ERIE MUNI ARPT CLOUDY    50  49  97 CALM      30.01S FOG
BOULDER MUN AP CLOUDY    48  48 100 NE6       30.01S FOG
CENTENNIAL     CLOUDY    47  47 100 SE3       30.02F
BROOMFIELD     CLOUDY    48  48 100 E3        30.03S FOG
FORT COLLINS   CLOUDY    48  45  87 E8        30.03F
LONGMONT       CLOUDY    51  49  93 NE8       30.03S FOG
$$

COZ041-046-047-076>085-087-088-051100-
...PIKES PEAK/PALMER DIVIDE AND SOUTHERN FOOTHILLS...

CITY           SKY/WX    TMP DP  RH WIND       PRES   REMARKS
COLO. SPRINGS  LGT RAIN  48  47  96 SE8       30.04F FOG
A. F. ACADEMY  CLOUDY    45  45  99 CALM      30.04S
ELLICOTT       CLOUDY   N/A N/A N/A SE10      30.03F
FALCON         FOG       46  46 100 SE9       30.06F VSB 3/4
FORT CARSON    CLOUDY    48  48 100 SE7       30.02F
LIMON          FOG       47  47 100 E13       30.03F VSB 1/2
MONUMENT HILL  CLOUDY    43  43 100 S7        30.05S
TRINIDAD       LGT RAIN  50  49  96 E6        29.99F
$$

COZ042>045-048>051-090-091-051100-
...NORTHEAST COLORADO...

CITY           SKY/WX    TMP DP  RH WIND       PRES   REMARKS
GREELEY ARPT   CLOUDY    46  43  87 SE9       30.04R VSB 1
AKRON          CLOUDY    45  45 100 SE10      30.04F FOG
BURLINGTON     LGT RAIN  50  48  93 E9        30.03F FOG
WRAY           CLOUDY   N/A N/A N/A CALM      30.04F
STERLING       CLOUDY    46  45  93 E5        30.04S
HOLYOKE        NOT AVBL
FORT MORGAN    FOG       46  45  95 E7        30.05S VSB 1
$$

COZ086-089-092>099-051100-
...SOUTHEAST COLORADO...

CITY           SKY/WX    TMP DP  RH WIND       PRES   REMARKS
PUEBLO         CLOUDY    52  51  97 E9        29.99F
LA JUNTA       LGT RAIN  55  53  93 E10       29.98F FOG
LAMAR          LGT RAIN  55  54  96 E14       29.97F FOG
SPRINGFIELD      N/A     53  53 100 E9        29.98F
$$



USA.gov is the U.S. government's official web portal to all federal, state and local government web resources and services.